Regional Weather Roundup
Issued by NWS

Home | Current Version | Previous Version | Graphics & Text | Print | Product List | Glossary On
Versions: 1 2 3 4 5 6 7 8 9 10 11 12 13 14 15 16 17 18 19 20 21 22 23 24 25 26 27 28 29 30 31 32 33 34 35 36 37 38 39 40 41 42 43 44 45 46 47 48 49 50
000
ASUS43 KLOT 210604
RWRIL

ILLINOIS REGIONAL WEATHER ROUNDUP
NATIONAL WEATHER SERVICE CHICAGO/ROMEOVILLE IL
100 AM CDT SAT OCT 21 2017

NOTE: "FAIR" INDICATES FEW OR NO CLOUDS BELOW 12,000 FEET WITH NO
SIGNIFICANT WEATHER AND/OR OBSTRUCTIONS TO VISIBILITY.

* THESE STATIONS ARE NOT UNDER NWS QUALITY CONTROL. THEY ALSO MAY NOT
  REPORT WEATHER SUCH AS PRECIPITATION OR FOG.

ILZ001-002-007-009-015-016-024-210700-
NORTHWEST ILLINOIS

CITY           SKY/WX    TMP DP  RH WIND       PRES   REMARKS
MOLINE         CLOUDY    66  49  54 S13       29.97R
6HR MIN TEMP:  64; 6HR MAX TEMP:  69;

STERLING*      CLOUDY    65  51  60 VRB7        N/A
SAVANNA*       CLOUDY    64  49  59 S9        29.98S
$$

ILZ003-004-008-010-011-017-018-210700-
NORTH CENTRAL ILLINOIS

CITY           SKY/WX    TMP DP  RH WIND       PRES   REMARKS
ROCKFORD       CLOUDY    62  48  60 S10       30.02F
6HR MIN TEMP:  60; 6HR MAX TEMP:  68;

FREEPORT*      CLOUDY    61  47  59 S10G16    30.01R
ROCHELLE*      CLOUDY    62  49  62 S8        30.03F
DE KALB*       MOCLDY    58  49  71 S9        30.05S
PERU*          CLOUDY    63  49  60 S8        30.03F
$$

ILZ005-006-012>014-019>023-210700-
NORTHEAST ILLINOIS

CITY           SKY/WX    TMP DP  RH WIND       PRES   REMARKS
CHICAGO-OHARE  CLOUDY    65  48  54 S15       30.04F
6HR MIN TEMP:  65; 6HR MAX TEMP:  70;

CHICAGO-MIDWAY CLOUDY    66  49  54 S15G22    30.06S
6HR MIN TEMP:  66; 6HR MAX TEMP:  73;

AURORA         CLOUDY    60  49  66 S7        30.06R
6HR MIN TEMP:  59; 6HR MAX TEMP:  68;

LANSING*       MOCLDY    60  51  71 S10       30.08S
JOLIET*        CLOUDY    64  51  60 S9        30.07R
WAUKEGAN       CLOUDY    65  48  54 S13       30.03S
6HR MIN TEMP:  65; 6HR MAX TEMP:  69;

DUPAGE AIRPORT CLOUDY    63  49  60 S13       30.06R
6HR MIN TEMP:  61; 6HR MAX TEMP:  67;

KANKAKEE*      CLOUDY    60  49  65 S9        30.10R
WHEELING       MOCLDY    67  49  52 S10       30.05F
6HR MIN TEMP:  67; 6HR MAX TEMP:  69;

MORRIS*        CLOUDY    60  49  66 S5        30.06R
NORTHERLY ISL    N/A     66  46  48 SW13        N/A
$$

LMZ740>746-210700-
SOUTHERN LAKE MICHIGAN

STATION/POSITION SKY/WX   TEMP    WIND        PRES    VSBY  WAVE
                          AIR SEA DIR/SP/G                  HT/PER
                          (F)     (DEG/KT/KT) (MB)    (MI)  (FT/S)
SOUTHERN BUOY              64 61  180/ 16/ 17 1017.5          2/ 3
WILMETTE HARBOR            65 60  180/ 10/ 12   N/A           2/ 3
HARRISON CRIB              67     190/ 19/ 20   N/A
BURNHAM HARBOR             67     190/ 13/ 18   N/A
CALUMET HARBOR             64     180/  7/ 11 1017.4S
BURNS HARBOR               63     190/ 13/ 17 1019.0F
MICHIGAN CITY              62     160/  9/ 11   N/A
MICHIGAN CITY 6N           60 58  180/ 10/ 12   N/A           1/ 2
ST. JOSEPH                 63 59  190/ 10/ 12 1019.2R         1/ 3
$$

ILZ025>027-034>036-040-047-049-050-058-095>099-210700-
WEST-CENTRAL ILLINOIS

CITY           SKY/WX    TMP DP  RH WIND       PRES   REMARKS
QUINCY         MOCLDY    64  50  60 S12       29.99R
GALESBURG*     CLOUDY    70  59  68 S9        30.00S
MACOMB*        CLOUDY    64  52  64 S13       30.02R
JACKSONVILLE*  CLOUDY    65  51  59 S15       30.03R
PITTSFIELD*    MOCLDY    65  53  64 SE10      30.01F
$$

ILZ028>032-037-038-041>044-048-051>054-059>061-210700-
CENTRAL ILLINOIS

CITY           SKY/WX    TMP DP  RH WIND       PRES   REMARKS
PONTIAC        CLOUDY    62  51  67 S12       30.07S
BLOOMINGTON    MOCLDY    60  49  66 S13       30.07S
DECATUR        CLOUDY    63  47  55 S14       30.08S
PEORIA         CLOUDY    62  52  69 S9        30.03S
6HR MIN TEMP:  62; 6HR MAX TEMP:  70;

LACON*         CLOUDY    66  51  58 S14       30.02S
LINCOLN*       CLOUDY    62  53  72 S7        30.05F
SPRINGFIELD    CLOUDY    64  53  67 S10       30.04F
6HR MIN TEMP:  64; 6HR MAX TEMP:  71;

TAYLORVILLE    MOCLDY    62  50  65 S10       30.06F
6HR MIN TEMP:  60; 6HR MAX TEMP:  65;

$$

ILZ033-039-045-046-055>057-062-063-210700-
EAST-CENTRAL ILLINOIS

CITY           SKY/WX    TMP DP  RH WIND       PRES   REMARKS
CHAMPAIGN      PTCLDY    61  49  64 S10       30.10F
DANVILLE*      MOCLDY    60  49  66 S8        30.09F
RANTOUL*       MOCLDY    58  51  78 S6        30.10S
MATTOON        CLOUDY    59  51  75 S6        30.10S
PARIS*         CLOUDY    55  50  83 S8        30.12S
$$

ILZ079-100>102-210700-
SOUTHWEST ILLINOIS

CITY           SKY/WX    TMP DP  RH WIND       PRES   REMARKS
ALTON          CLOUDY    59  53  81 CALM      30.05S
BELLEVILLE     CLEAR     59  50  74 SE6       30.07F
CAHOKIA*       CLOUDY    65  50  58 S5        30.04S
SPARTA*        MOCLDY    64  49  58 S12G18    30.07S
$$

ILZ064>066-069>071-074>076-080>082-084>086-088>090-092>094-210700-
SOUTH-CENTRAL ILLINOIS

CITY           SKY/WX    TMP DP  RH WIND       PRES   REMARKS
CARBONDALE     MOCLDY    59  51  75 SE6       30.09F
6HR MIN TEMP:  55; 6HR MAX TEMP:  65;

CAIRO*         PTCLDY    52  52  98 CALM      30.11F
EFFINGHAM*     CLOUDY    58  51  76 E3        30.11F
MARION         CLOUDY    60  51  71 SE3       30.10F
MT. VERNON     CLOUDY    61  50  67 S6        30.10F
CENTRALIA*     CLOUDY    64  52  64 S13       30.06F
SALEM*         CLOUDY    65  49  55 SE7       30.08F
METROPOLIS*    CLOUDY    54  51  90 CALM      30.12F
$$

ILZ067-068-072-073-078-083-087-091-210700-
SOUTHEAST ILLINOIS

CITY           SKY/WX    TMP DP  RH WIND       PRES   REMARKS
LAWRENCEVILLE  CLOUDY    56  50  80 SE7       30.13S
FLORA*         PTCLDY    57  52  83 S8        30.10F
FAIRFIELD*     MOCLDY    60  51  72 CALM      30.10F
HARRISBURG*    CLOUDY    53  50  92 CALM      30.12S
ROBINSON*      MOCLDY    51  48  89 S3        30.13F
CARMI*         CLOUDY    52  49  89 CALM      30.12S
$$

ABBREVIATIONS USED IN REMARKS
   TC - TEMPERATURE IN CELSIUS
  WCI - WIND CHILL INDEX
   HX - HEAT INDEX
  VSB - VISIBILITY
$$





USA.gov is the U.S. government's official web portal to all federal, state and local government web resources and services.